Regional Weather Roundup
Issued by NWS

Home | Current Version | Previous Version | Text Only | Print | Product List | Glossary On
Versions: 1 2 3 4 5 6 7 8 9 10 11 12 13 14 15 16 17 18 19 20 21 22 23 24 25 26 27 28 29 30 31 32 33 34 35 36 37 38 39 40 41 42 43 44 45 46 47 48 49 50
000
ASUS43 KLSX 220707
RWRMO

WEATHER SUMMARY FOR MISSOURI
NATIONAL WEATHER SERVICE SPRINGFIELD MO
200 AM CDT FRI MAY 22 2015

NOTE: "FAIR" INDICATES FEW OR NO CLOUDS BELOW 12,000 FEET WITH NO
       SIGNIFICANT WEATHER AND/OR OBSTRUCTIONS TO VISIBILITY.
       CURRENT SKY AND/OR WEATHER CONDITIONS ARE NOT AVAILABLE FOR
       CHILLICOTHE AND FARMINGTON.

MOZ001>031-035>038-043-044-053-054-220800-
...NORTHERN AND WESTERN MISSOURI...

CITY           SKY/WX    TMP DP  RH WIND       PRES   REMARKS
KANSAS CTY INT PTCLDY    52  45  77 SW8       30.23S
KANSAS C DTWN  CLEAR     55  47  74 SW3       30.23S
LEE`S SUMMIT   CLEAR     51  44  77 SW6       30.24S
ST JOSEPH      MOCLDY    52  47  83 S3        30.22R
CHILLICOTHE      N/A     57  44  62 VRB5      30.21R
KIRKSVILLE     CLEAR     55  45  68 W8        30.18R

$$
MOZ066>068-077>081-088>096-101>105-220800-
...SOUTHWEST MISSOURI...

CITY           SKY/WX    TMP DP  RH WIND       PRES   REMARKS
SPRINGFIELD    CLEAR     46  42  86 CALM      30.22F
JOPLIN         CLEAR     46  45  96 CALM      30.23S

$$
MOZ032>034-039>042-045>050-055>058-069>072-220800-
...CENTRAL MISSOURI...

CITY           SKY/WX    TMP DP  RH WIND       PRES   REMARKS
COLUMBIA       CLEAR     52  44  74 SW9       30.21R
JEFFERSON CITY CLEAR     53  45  74 CALM      30.22R
ROLLA          CLEAR     46  42  86 SW9       30.21R
SEDALIA        CLEAR     53  45  74 SW8       30.24R
WHITEMAN AFB   CLEAR     51  45  77 SW7       30.22S
WARRENSBURG    CLEAR     52  45  76 SW6       30.23S
OSAGE BEACH    CLEAR     45  41  87 CALM      30.23S

$$
MOZ051-052-059>065-220800-
...EAST CENTRAL MISSOURI...

CITY           SKY/WX    TMP DP  RH WIND       PRES   REMARKS
ST LOUIS INTL  CLEAR     54  43  66 SW6       30.18S
SPIRIT OF STL  CLEAR     48  45  89 CALM      30.18S
ST CHARLES     CLEAR     50  45  83 CALM      30.17S

$$
MOZ072>076-082>087-097>100-106>115-220800-
...SOUTH CENTRAL AND SOUTHEAST MISSOURI...

CITY           SKY/WX    TMP DP  RH WIND       PRES   REMARKS
CAPE GIRARDEAU CLEAR     45  45 100 CALM      30.22S
FARMINGTON     CLEAR     41  39  93 SW3       30.25R
POPLAR BLUFF   CLEAR     47  45  93 CALM      30.23S

$$


USA.gov is the U.S. government's official web portal to all federal, state and local government web resources and services.